Regional Weather Roundup
Issued by NWS

Home | Current Version | Previous Version | Text Only | Print | Product List | Glossary On
Versions: 1 2 3 4 5 6 7 8 9 10 11 12 13 14 15 16 17 18 19 20 21 22 23 24 25 26 27 28 29 30 31 32 33 34 35 36 37 38 39 40 41 42 43 44 45 46 47 48 49 50
000
ASUS43 KDTX 070210
RWRMI
MICHIGAN HOURLY REGIONAL WEATHER ROUNDUP
NATIONAL WEATHER SERVICE DETROIT/PONTIAC MI
900 PM EST FRI MAR 06 2015

NOTE: "FAIR" INDICATES FEW OR NO CLOUDS BELOW 12,000 FEET WITH NO
SIGNIFICANT WEATHER AND/OR OBSTRUCTION TO VISIBILITY.

MIZ047>049-052>055-059>063-066>070-074>076-081>083-070300-
SOUTHEAST LOWER MICHIGAN

CITY           SKY/WX    TMP DP  RH WIND       PRES   REMARKS
ADRIAN         CLEAR     18   9  68 SW15      30.23S
ALMA           CLOUDY    22   8  55 SW10      30.12F
ANN ARBOR        N/A     19  10  68 SW10      30.20F
BAD AXE        CLOUDY    21   7  55 SW15G22   30.10F
DETROIT CITY   CLOUDY    24  10  55 SW17      30.21F
DETROIT        MOCLDY    22  10  60 S17       30.23F
FLINT          CLOUDY    22   8  55 SW12      30.15F
GROSSE ILE     CLOUDY    21  16  79 S14       30.23S
HILLSDALE      CLEAR     19   9  64 SW8       30.18F
HOWELL         CLOUDY    19   9  63 S12G17    30.15F

CITY           SKY/WX    TMP DP  RH WIND       PRES   REMARKS
JACKSON        CLEAR     20   8  60 SW13      30.17F
LAMBERTVILLE   CLEAR     23  12  63 SW10G16   30.24F
LANSING        CLOUDY    22   8  55 SW15      30.15F
LAPEER         NOT AVBL
MASON          CLOUDY    21   8  58 SW5       30.15F
MONROE         MOCLDY    21  12  68 SW9       30.22F
MT. CLEMENS    CLOUDY    22  10  60 SW16      30.18F
PONTIAC        CLOUDY    20   9  62 S12G21    30.16F
PORT HOPE        N/A     23   3  42 SW9       30.08S
PORT HURON     CLOUDY    19  12  73 S16G22    30.18F
TRI CITIES     CLOUDY    23   7  50 SW20      30.12F
YPSILANTI      PTCLDY    23  11  60 SW18      30.21F
$$
MIZ043>046-050>051-056>058-064>065-071>073-077>080-070300-
SOUTHWEST LOWER MICHIGAN

CITY           SKY/WX    TMP DP  RH WIND       PRES   REMARKS
BATTLE CREEK   CLOUDY    21   9  59 SW14      30.17F
BENTON HARBOR  PTCLDY    21  11  65 S10       30.18F
BIG RAPIDS     CLOUDY    23  14  69 SW13G22   30.07S
COLDWATER      CLEAR     20   9  64 S7        30.19F
HOLLAND        CLOUDY    25  14  63 SW16      30.16F
GRAND RAPIDS   MOCLDY    21   7  54 SW12      30.15S
KALAMAZOO      MOCLDY    22  10  60 S15       30.17F
MARSHALL       MOCLDY    19   8  60 SW8       30.17F
MUSKEGON       CLOUDY    27  19  72 SW16G25   30.13F
$$
MIZ016>042-070300-
NORTHERN LOWER MICHIGAN

CITY           SKY/WX    TMP DP  RH WIND       PRES   REMARKS
ALPENA         CLOUDY    24   6  46 SW9G17    30.02R
BEAVER ISLAND  MOCLDY    25  19  78 SW14      29.98S
BELLAIRE       CLOUDY    25  16  69 S8        30.04S
CADILLAC       CLOUDY    20  14  78 S17G25    30.01R
CHARLEVOIX     PTCLDY    23  17  75 CALM      30.03F
FRANKFORT      MOCLDY    28  21  74 SW12G23   30.05S
GAYLORD        CLOUDY    20  12  71 SW16G29   29.99R
GRAYLING       CLOUDY    21  11  65 SW12G18   30.03R
HARBOR SPRINGS CLOUDY    23  17  75 SW12G20   30.01S
HOUGHTON LAKE  MOCLDY    20   8  60 SW15      30.04S
MANISTEE       CLOUDY    27  18  69 SW10      30.07S
OSCODA         CLOUDY    21   7  54 SW17      30.04F
PELLSTON       CLOUDY    24  16  71 SW10G24   30.00S
TRAVERSE CITY  MOCLDY    25  17  72 SW8G23    30.03R
$$
MIZ007>008-015-070300-
EASTERN UPPER MICHIGAN

CITY           SKY/WX    TMP DP  RH WIND       PRES   REMARKS
KINROSS        CLOUDY    25  21  86 SW8       29.95S
MACKINAC ISLAN CLOUDY    25  19  75 SW15G28   29.97S
NEWBERRY       PTCLDY    17  10  71 W8        29.96R
S. S. MARIE    CLOUDY    25  18  74 W13       29.94S
$$
MIZ004>006-011>014-085-070300-
CENTRAL UPPER MICHIGAN

CITY           SKY/WX    TMP DP  RH WIND       PRES   REMARKS
MANISTIQUE     CLEAR     24  15  68 NW6       29.97R
ESCANABA       CLEAR     19  10  68 SW7       29.99R
MENOMINEE      CLEAR     27  12  54 W5        30.01R
SAWYER-GWINN   CLEAR     25  10  54 W3        29.93R
$$
MIZ001>003-009>011-084-070300-
WESTERN UPPER MICHIGAN

CITY           SKY/WX    TMP DP  RH WIND       PRES   REMARKS
IRON MOUNTAIN  CLEAR     25   8  48 W3        29.94S
HOUGHTON       CLEAR     24  15  68 W17       29.90S
COPPER HARBOR    N/A     28  12  51 N17G25    29.90R
IRONWOOD       CLEAR     21   7  53 W7        29.93F
$$

ABBREVIATIONS USED IN REMARKS
   TC - TEMPERATURE IN CELSIUS
  WCI - WIND CHILL INDEX
   HX - HEAT INDEX
  VSB - VISIBILITY



USA.gov is the U.S. government's official web portal to all federal, state and local government web resources and services.